Wetterdaten: Woche 18.11.13 - 24.11.13 (KW47)
Datum Zeit Temp. Aussen +5cm Feuchte Auss Luftdruck Regen Sonnenschein Regendauer UV Solar Windben
18.11.2013 00:00 3,9 C 3,3 C 94 % 1018,1 hPa 0,0 l/m 0,00 h 0,00 h 0,0 UV-I 0 W/m 0,0 km/h (0 Bft)
18.11.2013 01:00 4,1 C 3,3 C 94 % 1017,0 hPa 0,0 l/m 0,00 h 0,00 h 0,0 UV-I 0 W/m 0,3 km/h (0 Bft)
18.11.2013 02:00 4,1 C 3,3 C 94 % 1016,0 hPa 0,0 l/m 0,00 h 0,00 h 0,0 UV-I 0 W/m 0,0 km/h (0 Bft)
18.11.2013 03:00 4,1 C 3,3 C 95 % 1015,1 hPa 0,0 l/m 0,00 h 0,00 h 0,0 UV-I 0 W/m 0,1 km/h (0 Bft)
18.11.2013 04:00 4,2 C 3,3 C 95 % 1014,1 hPa 0,0 l/m 0,00 h 0,00 h 0,0 UV-I 0 W/m 2,3 km/h (1 Bft)
18.11.2013 05:00 4,1 C 3,3 C 95 % 1013,4 hPa 0,0 l/m 0,00 h 0,00 h 0,0 UV-I 0 W/m 2,1 km/h (1 Bft)
18.11.2013 06:00 4,1 C 3,3 C 95 % 1012,6 hPa 0,0 l/m 0,00 h 0,00 h 0,0 UV-I 0 W/m 2,5 km/h (1 Bft)
18.11.2013 07:00 4,2 C 3,3 C 96 % 1012,1 hPa 0,0 l/m 0,00 h 0,00 h 0,0 UV-I 0 W/m 1,5 km/h (1 Bft)
18.11.2013 08:00 4,3 C 3,3 C 96 % 1012,0 hPa 0,0 l/m 0,00 h 0,00 h 0,0 UV-I 7 W/m 1,0 km/h (0 Bft)
18.11.2013 09:00 4,4 C 3,9 C 96 % 1011,6 hPa 0,0 l/m 0,00 h 0,00 h 0,0 UV-I 14 W/m 0,7 km/h (0 Bft)
18.11.2013 10:00 4,8 C 4,4 C 96 % 1011,3 hPa 0,0 l/m 0,00 h 0,00 h 0,0 UV-I 23 W/m 1,6 km/h (1 Bft)
18.11.2013 11:00 5,1 C 4,4 C 95 % 1011,0 hPa 0,0 l/m 0,00 h 0,00 h 0,0 UV-I 33 W/m 5,2 km/h (1 Bft)
18.11.2013 12:00 5,3 C 4,2 C 94 % 1010,5 hPa 0,0 l/m 0,00 h 0,03 h 0,0 UV-I 30 W/m 9,0 km/h (2 Bft)
18.11.2013 13:00 5,1 C 3,9 C 94 % 1010,0 hPa 0,0 l/m 0,00 h 0,00 h 0,0 UV-I 25 W/m 2,2 km/h (1 Bft)
18.11.2013 14:00 5,2 C 4,2 C 95 % 1009,4 hPa 0,0 l/m 0,00 h 0,00 h 0,0 UV-I 21 W/m 3,2 km/h (1 Bft)
18.11.2013 15:00 5,2 C 4,4 C 94 % 1009,1 hPa 0,0 l/m 0,00 h 0,00 h 0,0 UV-I 11 W/m 0,8 km/h (0 Bft)
18.11.2013 16:00 5,1 C 4,1 C 94 % 1009,0 hPa 0,0 l/m 0,00 h 0,00 h 0,0 UV-I 6 W/m 1,2 km/h (1 Bft)
18.11.2013 17:00 5,0 C 3,9 C 94 % 1009,1 hPa 0,0 l/m 0,00 h 0,00 h 0,0 UV-I 0 W/m 1,8 km/h (1 Bft)
18.11.2013 18:00 5,0 C 3,9 C 93 % 1009,2 hPa 0,0 l/m 0,00 h 0,00 h 0,0 UV-I 0 W/m 9,9 km/h (2 Bft)
18.11.2013 19:00 5,1 C 3,9 C 91 % 1009,0 hPa 0,0 l/m 0,00 h 0,00 h 0,0 UV-I 0 W/m 10,3 km/h (2 Bft)
18.11.2013 20:00 4,9 C 3,9 C 90 % 1008,8 hPa 0,0 l/m 0,00 h 0,00 h 0,0 UV-I 0 W/m 6,6 km/h (2 Bft)
18.11.2013 21:00 4,7 C 3,9 C 90 % 1008,5 hPa 0,0 l/m 0,00 h 0,00 h 0,0 UV-I 0 W/m 2,7 km/h (1 Bft)
18.11.2013 22:00 4,5 C 3,5 C 90 % 1008,3 hPa 0,0 l/m 0,00 h 0,00 h 0,0 UV-I 0 W/m 3,7 km/h (1 Bft)
18.11.2013 23:00 4,3 C 3,3 C 88 % 1008,1 hPa 0,0 l/m 0,00 h 0,00 h 0,0 UV-I 0 W/m 4,0 km/h (1 Bft)
19.11.2013 00:00 4,2 C 3,3 C 88 % 1007,6 hPa 0,0 l/m 0,00 h 0,00 h 0,0 UV-I 0 W/m 3,6 km/h (1 Bft)
19.11.2013 01:00 4,1 C 3,3 C 87 % 1007,0 hPa 0,0 l/m 0,00 h 0,00 h 0,0 UV-I 0 W/m 4,0 km/h (1 Bft)
19.11.2013 02:00 4,1 C 3,3 C 88 % 1006,8 hPa 0,0 l/m 0,00 h 0,00 h 0,0 UV-I 0 W/m 1,4 km/h (1 Bft)
19.11.2013 03:00 4,1 C 3,3 C 88 % 1006,4 hPa 0,0 l/m 0,00 h 0,00 h 0,0 UV-I 0 W/m 1,4 km/h (1 Bft)
19.11.2013 04:00 4,1 C 3,3 C 88 % 1006,1 hPa 0,0 l/m 0,00 h 0,00 h 0,0 UV-I 0 W/m 0,8 km/h (0 Bft)
19.11.2013 05:00 4,1 C 3,3 C 88 % 1005,9 hPa 0,0 l/m 0,00 h 0,00 h 0,0 UV-I 0 W/m 3,7 km/h (1 Bft)
19.11.2013 06:00 4,1 C 3,2 C 89 % 1005,7 hPa 0,0 l/m 0,00 h 0,00 h 0,0 UV-I 0 W/m 0,6 km/h (0 Bft)
19.11.2013 07:00 4,1 C 3,3 C 90 % 1005,8 hPa 0,0 l/m 0,00 h 0,00 h 0,0 UV-I 0 W/m 1,0 km/h (0 Bft)
19.11.2013 08:00 4,3 C 3,6 C 90 % 1006,2 hPa 0,0 l/m 0,00 h 0,00 h 0,0 UV-I 11 W/m 2,7 km/h (1 Bft)
19.11.2013 09:00 4,8 C 4,1 C 90 % 1006,5 hPa 0,0 l/m 0,00 h 0,00 h 0,0 UV-I 27 W/m 4,5 km/h (1 Bft)
19.11.2013 10:00 5,3 C 4,8 C 90 % 1006,7 hPa 0,0 l/m 0,00 h 0,00 h 0,0 UV-I 58 W/m 5,2 km/h (1 Bft)
19.11.2013 11:00 5,7 C 4,6 C 91 % 1006,6 hPa 0,0 l/m 0,00 h 0,00 h 0,0 UV-I 45 W/m 2,3 km/h (1 Bft)
19.11.2013 12:00 5,7 C 4,4 C 93 % 1006,4 hPa 0,0 l/m 0,00 h 0,00 h 0,0 UV-I 27 W/m 1,0 km/h (0 Bft)
19.11.2013 13:00 5,7 C 4,9 C 95 % 1006,3 hPa 0,0 l/m 0,00 h 0,00 h 0,0 UV-I 28 W/m 1,6 km/h (1 Bft)
19.11.2013 14:00 5,7 C 4,9 C 95 % 1006,5 hPa 0,0 l/m 0,00 h 0,00 h 0,0 UV-I 26 W/m 1,0 km/h (0 Bft)
19.11.2013 15:00 5,8 C 4,8 C 96 % 1006,7 hPa 0,0 l/m 0,00 h 0,00 h 0,0 UV-I 12 W/m 5,2 km/h (1 Bft)
19.11.2013 16:00 5,9 C 5,0 C 97 % 1007,0 hPa 0,0 l/m 0,00 h 0,03 h 0,0 UV-I 6 W/m 4,0 km/h (1 Bft)
19.11.2013 17:00 6,0 C 5,0 C 97 % 1007,5 hPa 0,0 l/m 0,00 h 0,13 h 0,0 UV-I 0 W/m 0,7 km/h (0 Bft)
19.11.2013 18:00 6,0 C 5,0 C 97 % 1008,1 hPa 0,2 l/m 0,00 h 0,17 h 0,0 UV-I 0 W/m 0,1 km/h (0 Bft)
19.11.2013 19:00 6,2 C 5,0 C 98 % 1008,6 hPa 0,4 l/m 0,00 h 0,63 h 0,0 UV-I 0 W/m 22,4 km/h (4 Bft)
19.11.2013 20:00 5,9 C 4,4 C 97 % 1009,0 hPa 0,4 l/m 0,00 h 0,83 h 0,0 UV-I 0 W/m 20,6 km/h (4 Bft)
19.11.2013 21:00 5,9 C 4,4 C 97 % 1009,1 hPa 0,0 l/m 0,00 h 0,00 h 0,0 UV-I 0 W/m 16,3 km/h (3 Bft)
19.11.2013 22:00 5,7 C 4,4 C 97 % 1009,2 hPa 0,0 l/m 0,00 h 0,20 h 0,0 UV-I 0 W/m 17,8 km/h (3 Bft)
19.11.2013 23:00 5,4 C 3,9 C 97 % 1009,2 hPa 0,0 l/m 0,00 h 0,00 h 0,0 UV-I 0 W/m 14,8 km/h (3 Bft)
20.11.2013 00:00 5,1 C 3,5 C 96 % 1009,2 hPa 0,0 l/m 0,00 h 0,00 h 0,0 UV-I 0 W/m 11,6 km/h (2 Bft)
20.11.2013 01:00 4,5 C 2,6 C 95 % 1009,2 hPa 0,0 l/m 0,00 h 0,00 h 0,0 UV-I 0 W/m 8,0 km/h (2 Bft)
20.11.2013 02:00 3,5 C 1,4 C 94 % 1009,4 hPa 0,0 l/m 0,00 h 0,00 h 0,0 UV-I 0 W/m 1,9 km/h (1 Bft)
20.11.2013 03:00 2,4 C 0,5 C 93 % 1009,4 hPa 0,0 l/m 0,00 h 0,00 h 0,0 UV-I 0 W/m 0,0 km/h (0 Bft)
20.11.2013 04:00 1,6 C 0,1 C 94 % 1009,3 hPa 0,0 l/m 0,00 h 0,00 h 0,0 UV-I 0 W/m 1,3 km/h (1 Bft)
20.11.2013 05:00 1,2 C -0,3 C 95 % 1009,1 hPa 0,0 l/m 0,00 h 0,00 h 0,0 UV-I 0 W/m 0,3 km/h (0 Bft)
20.11.2013 06:00 0,8 C -0,5 C 95 % 1008,9 hPa 0,0 l/m 0,00 h 0,00 h 0,0 UV-I 0 W/m 0,0 km/h (0 Bft)
20.11.2013 07:00 0,4 C -1,0 C 95 % 1008,8 hPa 0,0 l/m 0,00 h 0,00 h 0,0 UV-I 0 W/m 0,0 km/h (0 Bft)
20.11.2013 08:00 0,3 C -0,4 C 96 % 1008,5 hPa 0,0 l/m 0,00 h 0,00 h 0,0 UV-I 19 W/m 0,4 km/h (0 Bft)
20.11.2013 09:00 0,8 C 0,3 C 96 % 1008,0 hPa 0,0 l/m 0,27 h 0,00 h 0,0 UV-I 78 W/m 0,9 km/h (0 Bft)
20.11.2013 10:00 2,3 C 1,6 C 97 % 1007,2 hPa 0,2 l/m 1,00 h 0,00 h 0,0 UV-I 198 W/m 1,0 km/h (0 Bft)
20.11.2013 11:00 4,8 C 3,6 C 93 % 1006,2 hPa 0,0 l/m 1,00 h 0,00 h 0,0 UV-I 256 W/m 4,1 km/h (1 Bft)
20.11.2013 12:00 5,3 C 4,4 C 89 % 1005,1 hPa 0,0 l/m 0,63 h 0,00 h 0,0 UV-I 201 W/m 6,2 km/h (2 Bft)
20.11.2013 13:00 5,3 C 4,4 C 89 % 1003,9 hPa 0,0 l/m 0,20 h 0,00 h 0,0 UV-I 159 W/m 7,8 km/h (2 Bft)
20.11.2013 14:00 5,5 C 4,4 C 86 % 1002,7 hPa 0,0 l/m 0,60 h 0,00 h 0,0 UV-I 137 W/m 10,0 km/h (2 Bft)
20.11.2013 15:00 5,0 C 3,9 C 85 % 1001,9 hPa 0,0 l/m 0,00 h 0,00 h 0,0 UV-I 39 W/m 9,3 km/h (2 Bft)
20.11.2013 16:00 4,7 C 3,4 C 85 % 1001,3 hPa 0,0 l/m 0,00 h 0,00 h 0,0 UV-I 9 W/m 9,8 km/h (2 Bft)
20.11.2013 17:00 4,3 C 3,0 C 87 % 1000,4 hPa 0,0 l/m 0,00 h 0,00 h 0,0 UV-I 0 W/m 11,8 km/h (2 Bft)
20.11.2013 18:00 4,2 C 2,8 C 82 % 999,5 hPa 0,0 l/m 0,00 h 0,00 h 0,0 UV-I 0 W/m 18,7 km/h (3 Bft)
20.11.2013 19:00 4,1 C 2,6 C 81 % 998,8 hPa 0,0 l/m 0,00 h 0,00 h 0,0 UV-I 0 W/m 16,5 km/h (3 Bft)
20.11.2013 20:00 3,8 C 2,3 C 81 % 998,2 hPa 0,0 l/m 0,00 h 0,00 h 0,0 UV-I 0 W/m 14,7 km/h (3 Bft)
20.11.2013 21:00 3,6 C 1,7 C 82 % 998,0 hPa 0,2 l/m 0,00 h 0,77 h 0,0 UV-I 0 W/m 21,4 km/h (4 Bft)
20.11.2013 22:00 3,0 C 1,1 C 87 % 997,5 hPa 0,0 l/m 0,00 h 0,93 h 0,0 UV-I 0 W/m 20,2 km/h (4 Bft)
20.11.2013 23:00 2,5 C 1,1 C 91 % 996,9 hPa 0,0 l/m 0,00 h 0,27 h 0,0 UV-I 0 W/m 14,2 km/h (3 Bft)
21.11.2013 00:00 2,7 C 1,3 C 91 % 996,6 hPa 0,0 l/m 0,00 h 0,00 h 0,0 UV-I 0 W/m 12,8 km/h (3 Bft)
21.11.2013 01:00 3,3 C 1,7 C 86 % 996,4 hPa 0,0 l/m 0,00 h 0,00 h 0,0 UV-I 0 W/m 16,6 km/h (3 Bft)
21.11.2013 02:00 3,4 C 1,7 C 84 % 996,6 hPa 0,0 l/m 0,00 h 0,00 h 0,0 UV-I 0 W/m 17,2 km/h (3 Bft)
21.11.2013 03:00 3,4 C 2,2 C 85 % 997,0 hPa 0,0 l/m 0,00 h 0,03 h 0,0 UV-I 0 W/m 15,3 km/h (3 Bft)
21.11.2013 04:00 3,3 C 2,0 C 85 % 997,4 hPa 0,2 l/m 0,00 h 0,50 h 0,0 UV-I 0 W/m 11,6 km/h (2 Bft)
21.11.2013 05:00 3,2 C 1,2 C 87 % 997,8 hPa 0,0 l/m 0,00 h 0,90 h 0,0 UV-I 0 W/m 11,5 km/h (2 Bft)
21.11.2013 06:00 2,9 C 1,1 C 88 % 998,3 hPa 0,2 l/m 0,00 h 0,43 h 0,0 UV-I 0 W/m 6,3 km/h (2 Bft)
21.11.2013 07:00 2,8 C 1,5 C 89 % 998,9 hPa 0,0 l/m 0,00 h 0,00 h 0,0 UV-I 0 W/m 0,3 km/h (0 Bft)
21.11.2013 08:00 2,8 C 1,8 C 89 % 999,5 hPa 0,0 l/m 0,00 h 0,00 h 0,0 UV-I 13 W/m 0,0 km/h (0 Bft)
21.11.2013 09:00 3,1 C 2,5 C 89 % 1000,1 hPa 0,0 l/m 0,00 h 0,00 h 0,0 UV-I 25 W/m 0,4 km/h (0 Bft)
21.11.2013 10:00 3,6 C 2,8 C 87 % 1000,9 hPa 0,0 l/m 0,00 h 0,07 h 0,0 UV-I 37 W/m 1,0 km/h (0 Bft)
21.11.2013 11:00 4,4 C 3,6 C 86 % 1001,2 hPa 0,0 l/m 0,00 h 0,00 h 0,0 UV-I 74 W/m 2,4 km/h (1 Bft)
21.11.2013 12:00 5,2 C 4,6 C 83 % 1001,5 hPa 0,0 l/m 0,00 h 0,00 h 0,0 UV-I 118 W/m 4,3 km/h (1 Bft)
21.11.2013 13:00 5,5 C 4,4 C 83 % 1001,7 hPa 0,0 l/m 0,00 h 0,00 h 0,0 UV-I 74 W/m 8,4 km/h (2 Bft)
21.11.2013 14:00 5,4 C 4,4 C 84 % 1002,1 hPa 0,0 l/m 0,00 h 0,00 h 0,0 UV-I 53 W/m 4,8 km/h (1 Bft)
21.11.2013 15:00 5,1 C 3,9 C 85 % 1002,9 hPa 0,0 l/m 0,00 h 0,00 h 0,0 UV-I 28 W/m 6,7 km/h (2 Bft)
21.11.2013 16:00 4,6 C 3,3 C 88 % 1003,4 hPa 0,0 l/m 0,00 h 0,00 h 0,0 UV-I 7 W/m 5,0 km/h (1 Bft)
21.11.2013 17:00 4,1 C 2,8 C 88 % 1003,9 hPa 0,0 l/m 0,00 h 0,00 h 0,0 UV-I 0 W/m 3,8 km/h (1 Bft)
21.11.2013 18:00 4,1 C 3,1 C 88 % 1004,6 hPa 0,0 l/m 0,00 h 0,00 h 0,0 UV-I 0 W/m 3,3 km/h (1 Bft)
21.11.2013 19:00 4,0 C 2,8 C 87 % 1005,3 hPa 0,0 l/m 0,00 h 0,03 h 0,0 UV-I 0 W/m 1,7 km/h (1 Bft)
21.11.2013 20:00 3,8 C 2,3 C 88 % 1005,9 hPa 0,0 l/m 0,00 h 0,93 h 0,0 UV-I 0 W/m 5,2 km/h (1 Bft)
21.11.2013 21:00 3,3 C 1,6 C 90 % 1006,4 hPa 0,0 l/m 0,00 h 0,97 h 0,0 UV-I 0 W/m 11,3 km/h (2 Bft)
21.11.2013 22:00 2,7 C 1,1 C 92 % 1006,9 hPa 0,0 l/m 0,00 h 1,00 h 0,0 UV-I 0 W/m 14,3 km/h (3 Bft)
21.11.2013 23:00 2,6 C 1,1 C 92 % 1007,3 hPa 0,0 l/m 0,00 h 0,53 h 0,0 UV-I 0 W/m 12,5 km/h (3 Bft)
22.11.2013 00:00 2,3 C 0,8 C 90 % 1007,5 hPa 0,2 l/m 0,00 h 0,97 h 0,0 UV-I 0 W/m 14,4 km/h (3 Bft)
22.11.2013 01:00 2,0 C 0,6 C 93 % 1007,5 hPa 0,2 l/m 0,00 h 1,00 h 0,0 UV-I 0 W/m 18,5 km/h (3 Bft)
22.11.2013 02:00 1,9 C 0,6 C 94 % 1007,6 hPa 0,0 l/m 0,00 h 0,30 h 0,0 UV-I 0 W/m 15,8 km/h (3 Bft)
22.11.2013 03:00 2,0 C 0,6 C 91 % 1007,7 hPa 0,0 l/m 0,00 h 0,03 h 0,0 UV-I 0 W/m 14,8 km/h (3 Bft)
22.11.2013 04:00 2,2 C 0,6 C 86 % 1007,8 hPa 0,0 l/m 0,00 h 0,00 h 0,0 UV-I 0 W/m 15,1 km/h (3 Bft)
22.11.2013 05:00 2,3 C 1,1 C 87 % 1007,9 hPa 0,0 l/m 0,00 h 0,03 h 0,0 UV-I 0 W/m 17,3 km/h (3 Bft)
22.11.2013 06:00 2,2 C 1,1 C 89 % 1008,6 hPa 0,0 l/m 0,00 h 0,00 h 0,0 UV-I 0 W/m 14,7 km/h (3 Bft)
22.11.2013 07:00 2,3 C 1,4 C 91 % 1009,3 hPa 0,0 l/m 0,00 h 0,00 h 0,0 UV-I 0 W/m 14,0 km/h (3 Bft)
22.11.2013 08:00 2,5 C 1,7 C 92 % 1009,7 hPa 0,0 l/m 0,00 h 0,00 h 0,0 UV-I 7 W/m 14,2 km/h (3 Bft)
22.11.2013 09:00 2,8 C 1,9 C 93 % 1010,1 hPa 0,0 l/m 0,00 h 0,00 h 0,0 UV-I 14 W/m 16,4 km/h (3 Bft)
22.11.2013 10:00 3,0 C 2,3 C 93 % 1010,5 hPa 0,0 l/m 0,00 h 0,00 h 0,0 UV-I 31 W/m 15,7 km/h (3 Bft)
22.11.2013 11:00 3,5 C 2,9 C 92 % 1010,7 hPa 0,0 l/m 0,00 h 0,00 h 0,0 UV-I 45 W/m 13,9 km/h (3 Bft)
22.11.2013 12:00 3,9 C 3,0 C 89 % 1010,8 hPa 0,0 l/m 0,00 h 0,00 h 0,0 UV-I 29 W/m 14,2 km/h (3 Bft)
22.11.2013 13:00 4,1 C 3,3 C 88 % 1010,8 hPa 0,0 l/m 0,00 h 0,00 h 0,0 UV-I 27 W/m 15,7 km/h (3 Bft)
22.11.2013 14:00 4,4 C 3,3 C 87 % 1010,8 hPa 0,0 l/m 0,00 h 0,00 h 0,0 UV-I 30 W/m 15,3 km/h (3 Bft)
22.11.2013 15:00 4,6 C 3,3 C 88 % 1011,3 hPa 0,0 l/m 0,00 h 0,00 h 0,0 UV-I 12 W/m 12,3 km/h (3 Bft)
22.11.2013 16:00 4,6 C 3,3 C 88 % 1012,1 hPa 0,0 l/m 0,00 h 0,00 h 0,0 UV-I 0 W/m 14,8 km/h (3 Bft)
22.11.2013 17:00 4,5 C 3,3 C 89 % 1012,6 hPa 0,0 l/m 0,00 h 0,00 h 0,0 UV-I 0 W/m 15,4 km/h (3 Bft)
22.11.2013 18:00 4,5 C 3,3 C 89 % 1013,2 hPa 0,0 l/m 0,00 h 0,00 h 0,0 UV-I 0 W/m 16,5 km/h (3 Bft)
22.11.2013 19:00 4,7 C 3,5 C 90 % 1013,5 hPa 0,0 l/m 0,00 h 0,00 h 0,0 UV-I 0 W/m 14,4 km/h (3 Bft)
22.11.2013 20:00 4,8 C 3,9 C 90 % 1013,9 hPa 0,0 l/m 0,00 h 0,00 h 0,0 UV-I 0 W/m 10,0 km/h (2 Bft)
22.11.2013 21:00 4,9 C 3,9 C 90 % 1014,4 hPa 0,0 l/m 0,00 h 0,00 h 0,0 UV-I 0 W/m 9,9 km/h (2 Bft)
22.11.2013 22:00 4,9 C 3,9 C 91 % 1014,6 hPa 0,0 l/m 0,00 h 0,00 h 0,0 UV-I 0 W/m 9,8 km/h (2 Bft)
22.11.2013 23:00 4,8 C 3,9 C 91 % 1014,9 hPa 0,0 l/m 0,00 h 0,00 h 0,0 UV-I 0 W/m 9,4 km/h (2 Bft)
23.11.2013 00:00 4,6 C 3,4 C 91 % 1015,1 hPa 0,0 l/m 0,00 h 0,00 h 0,0 UV-I 0 W/m 9,8 km/h (2 Bft)
23.11.2013 01:00 4,4 C 3,3 C 91 % 1015,3 hPa 0,0 l/m 0,00 h 0,00 h 0,0 UV-I 0 W/m 9,7 km/h (2 Bft)
23.11.2013 02:00 4,3 C 3,3 C 92 % 1015,6 hPa 0,0 l/m 0,00 h 0,00 h 0,0 UV-I 0 W/m 10,0 km/h (2 Bft)
23.11.2013 03:00 4,4 C 3,1 C 93 % 1015,6 hPa 0,0 l/m 0,00 h 0,53 h 0,0 UV-I 0 W/m 8,7 km/h (2 Bft)
23.11.2013 04:00 4,2 C 2,8 C 94 % 1015,8 hPa 0,0 l/m 0,00 h 0,00 h 0,0 UV-I 0 W/m 9,9 km/h (2 Bft)
23.11.2013 05:00 4,3 C 3,2 C 94 % 1016,1 hPa 0,0 l/m 0,00 h 0,00 h 0,0 UV-I 0 W/m 13,1 km/h (3 Bft)
23.11.2013 06:00 4,3 C 3,3 C 94 % 1016,5 hPa 0,0 l/m 0,00 h 0,00 h 0,0 UV-I 0 W/m 12,5 km/h (3 Bft)
23.11.2013 07:00 4,4 C 3,3 C 94 % 1016,9 hPa 0,0 l/m 0,00 h 0,00 h 0,0 UV-I 0 W/m 9,5 km/h (2 Bft)
23.11.2013 08:00 4,4 C 3,3 C 95 % 1017,3 hPa 0,0 l/m 0,00 h 0,00 h 0,0 UV-I 7 W/m 9,5 km/h (2 Bft)
23.11.2013 09:00 4,6 C 3,9 C 95 % 1017,8 hPa 0,0 l/m 0,00 h 0,00 h 0,0 UV-I 18 W/m 7,6 km/h (2 Bft)
23.11.2013 10:00 4,9 C 4,2 C 95 % 1018,4 hPa 0,0 l/m 0,00 h 0,00 h 0,0 UV-I 35 W/m 9,9 km/h (2 Bft)
23.11.2013 11:00 5,3 C 4,4 C 95 % 1018,4 hPa 0,0 l/m 0,00 h 0,00 h 0,0 UV-I 48 W/m 11,0 km/h (2 Bft)
23.11.2013 12:00 5,6 C 4,9 C 94 % 1018,4 hPa 0,0 l/m 0,00 h 0,00 h 0,0 UV-I 55 W/m 11,5 km/h (2 Bft)
23.11.2013 13:00 5,9 C 5,0 C 94 % 1018,6 hPa 0,0 l/m 0,00 h 0,00 h 0,0 UV-I 40 W/m 10,0 km/h (2 Bft)
23.11.2013 14:00 5,9 C 5,0 C 93 % 1018,6 hPa 0,0 l/m 0,00 h 0,00 h 0,0 UV-I 31 W/m 10,5 km/h (2 Bft)
23.11.2013 15:00 6,0 C 5,0 C 93 % 1018,7 hPa 0,0 l/m 0,07 h 0,00 h 0,0 UV-I 24 W/m 10,0 km/h (2 Bft)
23.11.2013 16:00 6,1 C 5,0 C 92 % 1018,9 hPa 0,0 l/m 0,00 h 0,00 h 0,0 UV-I 9 W/m 6,8 km/h (2 Bft)
23.11.2013 17:00 5,9 C 4,8 C 92 % 1019,3 hPa 0,0 l/m 0,00 h 0,00 h 0,0 UV-I 0 W/m 10,6 km/h (2 Bft)
23.11.2013 18:00 5,7 C 4,4 C 92 % 1019,7 hPa 0,0 l/m 0,00 h 0,00 h 0,0 UV-I 0 W/m 12,4 km/h (3 Bft)
23.11.2013 19:00 5,6 C 4,3 C 91 % 1019,9 hPa 0,0 l/m 0,00 h 0,00 h 0,0 UV-I 0 W/m 13,7 km/h (3 Bft)
23.11.2013 20:00 4,9 C 3,5 C 90 % 1020,1 hPa 0,0 l/m 0,00 h 0,00 h 0,0 UV-I 0 W/m 8,0 km/h (2 Bft)
23.11.2013 21:00 3,8 C 2,3 C 90 % 1020,4 hPa 0,0 l/m 0,00 h 0,00 h 0,0 UV-I 0 W/m 3,9 km/h (1 Bft)
23.11.2013 22:00 3,0 C 1,5 C 92 % 1020,4 hPa 0,0 l/m 0,00 h 0,00 h 0,0 UV-I 0 W/m 1,3 km/h (1 Bft)
23.11.2013 23:00 2,3 C 0,5 C 93 % 1020,7 hPa 0,0 l/m 0,00 h 0,00 h 0,0 UV-I 0 W/m 0,3 km/h (0 Bft)
24.11.2013 00:00 1,3 C -0,6 C 93 % 1020,8 hPa 0,0 l/m 0,00 h 0,00 h 0,0 UV-I 0 W/m 0,1 km/h (0 Bft)
24.11.2013 01:00 0,7 C -1,1 C 93 % 1020,8 hPa 0,0 l/m 0,00 h 0,00 h 0,0 UV-I 0 W/m 0,0 km/h (0 Bft)
24.11.2013 02:00 0,2 C -1,7 C 94 % 1021,0 hPa 0,0 l/m 0,00 h 0,00 h 0,0 UV-I 0 W/m 0,0 km/h (0 Bft)
24.11.2013 03:00 -0,4 C -1,5 C 94 % 1021,2 hPa 0,0 l/m 0,00 h 0,00 h 0,0 UV-I 0 W/m 0,0 km/h (0 Bft)
24.11.2013 04:00 0,1 C 0,1 C 96 % 1021,4 hPa 0,0 l/m 0,00 h 0,00 h 0,0 UV-I 0 W/m 0,0 km/h (0 Bft)
24.11.2013 05:00 0,6 C 0,1 C 96 % 1021,5 hPa 0,2 l/m 0,00 h 0,37 h 0,0 UV-I 0 W/m 0,0 km/h (0 Bft)
24.11.2013 06:00 1,0 C 0,9 C 97 % 1021,7 hPa 0,2 l/m 0,00 h 0,67 h 0,0 UV-I 0 W/m 0,0 km/h (0 Bft)
24.11.2013 07:00 1,5 C 1,1 C 97 % 1022,0 hPa 0,0 l/m 0,00 h 0,33 h 0,0 UV-I 0 W/m 0,1 km/h (0 Bft)
24.11.2013 08:00 1,9 C 1,5 C 97 % 1022,2 hPa 0,2 l/m 0,00 h 0,40 h 0,0 UV-I 7 W/m 0,2 km/h (0 Bft)
24.11.2013 09:00 2,6 C 2,3 C 97 % 1022,4 hPa 0,0 l/m 0,00 h 0,13 h 0,0 UV-I 29 W/m 0,8 km/h (0 Bft)
24.11.2013 10:00 3,9 C 3,4 C 98 % 1022,9 hPa 0,2 l/m 0,07 h 0,47 h 0,0 UV-I 84 W/m 0,4 km/h (0 Bft)
24.11.2013 11:00 5,6 C 4,7 C 98 % 1022,8 hPa 0,0 l/m 0,03 h 0,10 h 0,0 UV-I 107 W/m 1,4 km/h (1 Bft)
24.11.2013 12:00 6,6 C 5,6 C 98 % 1022,6 hPa 0,0 l/m 0,03 h 0,47 h 0,0 UV-I 73 W/m 5,3 km/h (1 Bft)
24.11.2013 13:00 6,7 C 5,4 C 97 % 1022,6 hPa 0,2 l/m 0,00 h 0,30 h 0,0 UV-I 68 W/m 11,3 km/h (2 Bft)
24.11.2013 14:00 7,0 C 5,1 C 94 % 1022,7 hPa 0,0 l/m 0,00 h 0,00 h 0,0 UV-I 62 W/m 12,8 km/h (3 Bft)
24.11.2013 15:00 7,0 C 5,0 C 91 % 1023,2 hPa 0,0 l/m 0,00 h 0,00 h 0,0 UV-I 25 W/m 13,0 km/h (3 Bft)
24.11.2013 16:00 6,7 C 4,7 C 88 % 1023,9 hPa 0,2 l/m 0,00 h 0,33 h 0,0 UV-I 8 W/m 13,4 km/h (3 Bft)
24.11.2013 17:00 5,6 C 3,4 C 88 % 1024,4 hPa 0,0 l/m 0,00 h 0,63 h 0,0 UV-I 0 W/m 12,5 km/h (3 Bft)
24.11.2013 18:00 5,1 C 3,7 C 91 % 1025,1 hPa 0,0 l/m 0,00 h 0,00 h 0,0 UV-I 0 W/m 8,1 km/h (2 Bft)
24.11.2013 19:00 5,0 C 3,6 C 89 % 1025,8 hPa 0,0 l/m 0,00 h 0,00 h 0,0 UV-I 0 W/m 6,0 km/h (2 Bft)
24.11.2013 20:00 4,7 C 3,3 C 91 % 1026,4 hPa 0,0 l/m 0,00 h 0,00 h 0,0 UV-I 0 W/m 2,1 km/h (1 Bft)
24.11.2013 21:00 4,5 C 3,3 C 92 % 1027,0 hPa 0,0 l/m 0,00 h 0,00 h 0,0 UV-I 0 W/m 1,3 km/h (1 Bft)
24.11.2013 22:00 4,3 C 3,3 C 93 % 1027,5 hPa 0,0 l/m 0,00 h 0,00 h 0,0 UV-I 0 W/m 0,9 km/h (0 Bft)
24.11.2013 23:00 4,1 C 2,8 C 94 % 1028,0 hPa 0,0 l/m 0,00 h 0,00 h 0,0 UV-I 0 W/m 0,4 km/h (0 Bft)
Min-Datum _ 24.11.13 24.11.13 20.11.13 21.11.13 - - - - - 18.11.13
_ Min-Zeit 03:30 02:48 18:58 00:46 - - - - - 00:00
Minimum _ -0,5 C -2,2 C 80 % 996,4 hPa - - - - - 0,0 km/h (0 Bft)
Max-Datum _ 24.11.13 24.11.13 19.11.13 24.11.13 19.11.13 20.11.13 18.11.13 18.11.13 20.11.13 19.11.13
_ Max-Zeit 14:32 12:00 18:46 23:58 19:02 09:42 12:44 00:00 12:02 19:26
Maximum _ 7,1 C 5,6 C 98 % 1028,2 hPa 0,4 l/m 0,03 h 0,03 h 0,0 UV-I 302 W/m 37,1 km/h
N-NW (5 Bft)
Durchschnitt _ 4,1 C 3,0 C 92 % 1010,9 hPa #3,4 l/m #3:54 h #16:32 h 0,0 UV-I 46 W/m 7,3 km/h (2 Bft)
© 2013 W. Hausmann